TimeCDT,TemperatureF,Dew PointF,Humidity,Sea Level PressureIn,VisibilityMPH,Wind Direction,Wind SpeedMPH,Gust SpeedMPH,PrecipitationIn,Events,Conditions,WindDirDegrees,DateUTC
12:53 AM,71.1,68.0,90,30.00,10.0,Calm,Calm,-,N/A,,Clear,0,2012-07-24 05:53:00
1:53 AM,71.1,68.0,90,29.99,10.0,Calm,Calm,-,N/A,,Clear,0,2012-07-24 06:53:00
2:53 AM,71.1,66.9,87,29.96,10.0,NE,6.9,-,N/A,,Clear,50,2012-07-24 07:53:00
3:53 AM,71.1,66.9,87,29.98,10.0,ENE,4.6,-,0.00,Rain,Light Rain,70,2012-07-24 08:53:00
4:53 AM,70.0,66.0,87,29.98,8.0,East,4.6,-,0.01,Rain,Light Rain,90,2012-07-24 09:53:00
5:09 AM,69.8,66.2,88,29.97,10.0,East,4.6,-,0.01,Rain-Thunderstorm,Light Rain,100,2012-07-24 10:09:00
5:51 AM,69.8,66.2,88,29.98,6.0,ENE,3.5,-,0.04,Rain,Light Rain,70,2012-07-24 10:51:00
5:53 AM,69.1,66.0,90,30.00,6.0,Calm,Calm,-,0.04,Rain,Light Rain,0,2012-07-24 10:53:00
6:06 AM,69.8,66.2,88,30.00,8.0,Calm,Calm,-,0.00,Rain-Thunderstorm,Light Rain,0,2012-07-24 11:06:00
6:16 AM,69.8,66.2,88,29.99,6.0,East,4.6,-,0.01,Rain-Thunderstorm,Light Rain,80,2012-07-24 11:16:00
6:37 AM,69.8,66.2,88,29.97,7.0,ENE,6.9,-,N/A,Rain,Light Rain,70,2012-07-24 11:37:00
6:53 AM,69.1,66.0,90,29.99,4.0,East,5.8,-,0.05,Rain,Light Rain,90,2012-07-24 11:53:00
7:53 AM,69.1,66.9,93,29.99,8.0,East,5.8,-,0.07,Rain,Light Rain,100,2012-07-24 12:53:00
8:53 AM,69.1,66.9,93,29.99,8.0,ENE,3.5,-,0.00,Rain,Light Rain,70,2012-07-24 13:53:00
9:53 AM,69.1,66.9,93,29.95,3.0,ESE,9.2,-,0.07,Rain,Light Rain,110,2012-07-24 14:53:00
10:46 AM,71.6,68.0,88,29.94,9.0,North,5.8,-,0.01,,Mostly Cloudy,10,2012-07-24 15:46:00
10:53 AM,71.1,68.0,90,29.96,9.0,North,3.5,-,0.01,,Mostly Cloudy,360,2012-07-24 15:53:00
11:29 AM,71.6,68.0,88,29.96,10.0,ESE,5.8,-,N/A,,Scattered Clouds,110,2012-07-24 16:29:00
11:53 AM,73.0,68.0,84,29.96,10.0,East,5.8,-,N/A,,Overcast,90,2012-07-24 16:53:00
12:53 PM,73.0,68.0,84,29.95,10.0,East,5.8,-,N/A,,Mostly Cloudy,90,2012-07-24 17:53:00
1:53 PM,78.1,68.0,71,29.94,10.0,East,8.1,-,N/A,,Overcast,80,2012-07-24 18:53:00
2:53 PM,80.1,69.1,69,29.91,10.0,ESE,8.1,-,N/A,,Clear,110,2012-07-24 19:53:00
3:53 PM,81.0,70.0,69,29.89,10.0,East,9.2,-,N/A,,Clear,80,2012-07-24 20:53:00
4:53 PM,82.0,71.1,69,29.89,10.0,SE,9.2,-,N/A,,Clear,140,2012-07-24 21:53:00
5:53 PM,80.1,71.1,74,29.88,10.0,SE,6.9,-,N/A,,Overcast,130,2012-07-24 22:53:00
6:53 PM,81.0,71.1,72,29.83,10.0,ESE,11.5,-,N/A,,Overcast,110,2012-07-24 23:53:00
7:53 PM,78.1,70.0,76,29.84,10.0,ESE,8.1,-,N/A,,Clear,110,2012-07-25 00:53:00
8:53 PM,75.9,69.1,79,29.84,10.0,East,6.9,-,N/A,,Clear,100,2012-07-25 01:53:00
9:53 PM,75.0,69.1,82,29.83,10.0,East,6.9,-,0.00,Rain,Light Rain,90,2012-07-25 02:53:00
10:53 PM,73.9,68.0,82,29.80,10.0,ESE,10.4,-,0.00,,Clear,110,2012-07-25 03:53:00
11:53 PM,73.9,68.0,82,29.77,10.0,ESE,9.2,-,N/A,,Clear,110,2012-07-25 04:53:00